Espace membre
ImprimablePdf
Challenges > Kust Criterium - De Haan, 27/12/2009, BEL - Eddy Ronquetti Beach Race
Liste des rapports > 54km - Classement
Recherche: Page: [1] 2 3
415 Entrées
 
Les réclamations ne sont plus acceptées, les résultats sont considérés comme définitifs.
Catégorie
PosNrNomAgeIOCTempsTkmMoy.RangNomLocalité
1.10CHAMON Thomas20BEL1:44:411:57 30.951eliDE PANNE
2.2BERCKMANS Nico40BEL1:45:051:57 30.831masBALEN
3.1COMMEYE Davy29BEL1:45:061:57 30.832eli
4.3VAN HOOVELS Kevin24BEL1:45:311:58 30.713eliBETEKOM
5.28MASSAER Joris27BEL1:45:321:58 30.704eliPEPINGEN
6.7HIMPENS Maarten24BEL1:45:481:58 30.625eliVEURNE
7.15HENDERIECKX Kris32BEL1:45:501:58 30.626eliBELSELE
8.9BOUCHER David29BEL1:46:021:58 30.567eliKORTIJS
9.8HERTSENS Kris40BEL1:46:091:58 30.532masSINT NIKLAAS
10.6RONDELEZ Björn33BEL1:49:232:02 29.628eliKOEKELARE
11.11VAN HECKE Bart24BEL1:49:232:02 29.629eliKALKEN
12.314VANDOUSSELAERE Sven21BEL1:50:072:03 29.4310eliWAARDAMME
13.653CLEPPE Wouter32BEL1:50:072:03 29.4211eliSINT NIKLAAS
14.36SLEECKX Danny38BEL1:50:272:03 29.3312eliMALLE
15.12VERVECKEN Bert40BEL1:50:282:03 29.333masHERENTALS
16.13BEYENS Yoeri31BEL1:50:302:03 29.3213eliBALEN
17.37SCHOONACKER Jehudi31BEL1:51:462:05 28.9914eliOOSTEEKLO
18.35DEWILDE Wouter30BEL1:52:422:06 28.7515eliTORHOUT
19.17ART Quentin19BEL1:52:432:06 28.7516eliSOMBREFFE
20.38CODDENS Peter32BEL1:53:292:07 28.5517eliHEULE
21.18VANLAERE Kenny28BEL1:54:022:07 28.4118eliBEERNEM
22.22WILLEMS Frederik30BEL1:55:022:08 28.1719eli
23.20VANSIELEGHEM Lander21BEL1:55:092:08 28.1420eliBREDENE
24.19RYCKAERT Johan33BEL1:55:132:09 28.1221eliSIJSELE
25.809BARGNIES Yerome22BEL1:55:132:09 28.1222eli
26.269SABBE Nico25BEL1:55:142:09 28.1223eliASSEBROEK
27.16HOREMANS Tom30BEL1:55:142:09 28.1224eliOUD-TURNHOUT
28.14BAERT Luc40BEL1:55:152:09 28.124masZELE
29.26VAN DE VELDEV Valentijn18BEL1:55:252:09 28.071junLEMBEKE
30.208VANDENBOGAERDE Robin21BEL1:55:472:09 27.9925eliBREDENE
31.861LAMMERTYN Geert35BEL1:55:472:09 27.9826eliOOSTENDE
32.241BOETENS Matthias18BEL1:55:582:09 27.942junDEINZE
33.247SMET Gert36BEL1:55:592:09 27.9427eliBAZEL
34.299DESMET Jani21BEL1:56:012:09 27.9328eliKACHTEM
35.273VERBOVEN Bert31BEL1:56:022:09 27.9329eliWESTERLO
36.280BERTRAND Jonathan21BEL1:56:032:09 27.9230eliTHOREMBAIS
37.826SCHEFFER Jeroen46NLD1:56:042:09 27.925mas
38.268VANDEN BON Jurgen30BEL1:56:082:10 27.9031eliOOSTENDE
39.30T'JAECKX Kevin31BEL1:56:102:10 27.8932eliNIEUWPOORT
40.225VERTESSEN Johnny43BEL1:56:132:10 27.886masRILLAAR
41.51FVERBEKE Grace25BEL1:56:252:10 27.831damAARTRIJKE
42.329VAN DEN BULKE Ken32BEL1:56:252:10 27.8333eliKESSEL-LO
43.249VANSIELEGHEM Jasper19BEL1:56:462:10 27.7534eliBREDENE
44.25DHIEDT Bram17BEL1:57:182:11 27.623junETTELGEM
45.646DE SMYTER Dominique37BEL1:57:572:12 27.4735eliKRUISHOUTEM
46.222BOGAERTS Erwin41BEL1:58:462:12 27.287masLOMMEL
47.230NIJS Tim30BEL1:58:522:13 27.2636eliLOMMEL
48.685MORIS Sven23BEL1:59:082:13 27.2037eliBEGIJNEDIJK
49.322CHAMON Alexander24BEL1:59:102:13 27.1938eli
50.254VERPLANCKE Patrick47BEL1:59:122:13 27.188masAARTRIJKE
51.307TEMPST Kurt38BEL1:59:302:13 27.1139eliLIER
52.5VERMEULEN Nicolas25BEL2:00:122:14 26.9640eliVILVOORDE
53.733SABBE Jonas23BEL2:00:182:14 26.9341eliLEFFINGE
54.253TOLLENAERE Wim40BEL2:00:222:14 26.929masOPWIJK
55.659LECOLIER Benoit31FRA2:00:492:15 26.8242eliTOURMIGNIES
56.252GODERIS Jelle18BEL2:00:492:15 26.824junZARREN
57.275ROSKAM Andy35BEL2:00:552:15 26.8043eliPUURS
58.228DE BAETS Bjorn32BEL2:00:552:15 26.8044eliMALDEGEM
59.29VANMOLECOT Steven30BEL2:00:562:15 26.7945eliBREDENE
60.233WYNSBERGHE Michel50BEL2:00:572:15 26.7910masOOSTENDE
61.700DELHEYE Henri31BEL2:00:592:15 26.7846eliOOSTKERKE
62.281HUYGHE Peter44BEL2:00:592:15 26.7811masWESTKERKE
63.749VANWALLEGHEM Lieven38BEL2:01:012:15 26.7847eliKOKSIJDE
64.21DIELS Kurt33BEL2:01:032:15 26.7748eli
65.323MOORTGAT Peter37BEL2:01:072:15 26.7549eliBORSBEKE
66.272MICHELS Andy31BEL2:01:242:15 26.6950eliKRUISHOUTEM
67.292DUPON Frederik37BEL2:01:272:15 26.6851eliNIEUWPOORT
68.296NEYT Roy30BEL2:01:292:15 26.6752eliLANGEMARK
69.214DE MUNTER Alain43BEL2:01:442:16 26.6212masHULDENBERG
70.317VERBERCKMOES Christoph19BEL2:01:512:16 26.5953eliELVERSELE
71.320VANSLEMBROUCK Elie32BEL2:02:432:17 26.4054eli
72.276SMOLDERS Davy35BEL2:02:472:17 26.3955eliRAVELS
73.852LINGIER Niek38BEL2:02:542:17 26.3656eliOOSTENDE
74.240OSAER David29BEL2:02:562:17 26.3657eliGISTEL
75.721GOETHALS Jeffrey55BEL2:02:572:17 26.3513masVEURNE
76.572DAUWENS Jan27BEL2:03:062:17 26.3258eliZUIENKERKE
77.717POPELIER Mario42BEL2:03:082:17 26.3214masBREDENE
78.654VERJANS Sven27BEL2:03:112:17 26.3059eliMERCHTEM
79.705VAN DE VELDE Jan41BEL2:03:152:17 26.2915masBREDENE
80.684BROECKX Pieter18BEL2:03:172:17 26.285junZWIJNDRECHT
81.714COUSSEMENT Jakob21BEL2:03:222:18 26.2760eliWANNEGEM-LEDE
82.294BUEKEN Joeri18BEL2:03:242:18 26.266junZOUTLEEUW
83.629TOUSSEIN Jan29BEL2:03:252:18 26.2561eliBRUGGE
84.257NOLLET Stefaan38BEL2:03:292:18 26.2462eliBEERNEM
85.266VANDEROSTYNE Davy36BEL2:03:312:18 26.2363eliOOSTENDE
86.519COOLS Aaron23BEL2:03:352:18 26.2264eliWAASMUNSTER
87.315VAN CLEEMPUTTE Timmy32BEL2:03:362:18 26.2265eliDENDERLEEUW
88.632LEO Somers45BEL2:03:362:18 26.2216masVORSELAAR
89.694VANDEKINDEREN Mario38BEL2:03:362:18 26.2166eliROKSEM
90.666DEMUNCK Eddy41BEL2:03:372:18 26.2117masOOSTDUINKERKE
91.584VLEURINCK Kevin29BEL2:03:452:18 26.1867eliZELZATE
92.246MOTTE David24BEL2:03:462:18 26.1868eliHERNE
93.313VAN GOETHEM Kevin19BEL2:03:462:18 26.1869eliSINAAI
94.701VOLDERS Denis43BEL2:03:462:18 26.1818masAVERBODE
95.274MEEUS Ward17BEL2:03:502:18 26.177junOUDENBURG
96.588LEYS Dries31BEL2:03:542:18 26.1570eliBRUGGE
97.720VAN DEN BRANDE Noel44BEL2:03:592:18 26.1319masLICHTAART
98.245STROO Luc46BEL2:04:042:18 26.1220masZELZATE
99.316DE KOCK Chris34BEL2:04:062:18 26.1171eliMOORSEL
100.301PENNE Frederik31BEL2:04:082:18 26.1072eliNINOVE
101.239BRETT Wauters26BEL2:04:122:18 26.0973eliSINT-MARTENS BODEGEM
102.524WAEGENAER Francis39BEL2:04:172:19 26.0774eliVILVOORDE
103.306MOEYAERT Matthias20BEL2:04:212:19 26.0675eliWAARDAMME
104.321DUMOULIN Steven32BEL2:04:212:19 26.0676eliROESELARE
105.259MASSONET Dominique32BEL2:04:252:19 26.0477eliBORGLOON
106.260MICHIELSEN Andy21BEL2:04:442:19 25.9878eliOOSTMALLE
107.601DE BRUYNE Danny43BEL2:04:462:19 25.9721masWAARSCHOOT
108.223BEULLENS Gert42BEL2:04:592:19 25.9222masONZE LIEVE VROUW WAVER
109.285VAN DE SCHANS Dirk30BEL2:05:152:20 25.8779eliLOMMEL
110.553DECROO Philippe34BEL2:05:382:20 25.7980eliADINKERKE
111.308DE ROUCK Guy44BEL2:05:422:20 25.7823masZINGEM
112.236SEYNAVE Vincent31BEL2:05:582:20 25.7281eliWERVIK
113.531BULTYNCK Frank36BEL2:05:592:20 25.7282eliOOSTENDE
114.723SNOECK Jose43BEL2:06:002:20 25.7124masST-AMANDSBERG
115.612NIJS Johan48BEL2:06:172:21 25.6625masBELSELE
116.216JORDENS Marnik37BEL2:06:182:21 25.6583eliRILLAAR
117.645DE DAUW Benny38BEL2:06:262:21 25.6384eliSINT-NIKLAAS
118.715MEYS Kris32BEL2:06:282:21 25.6285eliHAMME
119.271VANHUELE Frank38BEL2:06:312:21 25.6186eliOUDENBURG
120.567VIENNE Gunar43BEL2:06:422:21 25.5726masWESTKERKE-OUDENBURG
121.552KENNIS Sören23BEL2:07:012:22 25.5187eliSTEKENE
122.289FRANCIS VANNESTE Francis40BEL2:08:032:23 25.3027masROESELARE
123.521KOEN Vertommen38BEL2:08:422:23 25.1888eliREET
124.231HESTERS Tom40BEL2:09:122:24 25.0828masGENT
125.213JANSSENS Steven29BEL2:09:122:24 25.0889eliWESTMEERBEEK
126.835VAN DER STOCKT David38BEL2:09:122:24 25.0890eliGERAARDSBERGEN
127.287DE BAENE Tim17BEL2:09:142:24 25.078junHEIST- AAN-ZEE
128.200DE RIDDER Kristof33BEL2:09:182:24 25.0691eliBELLINGEN
129.670VERMORGEN Johan41BEL2:09:212:24 25.0529masHAMME
130.234DE CLERCQ Patrick40BEL2:09:262:24 25.0330masMOERBEKE-WAAS
131.535DE WEGHE Sam22BEL2:09:262:24 25.0392eliPEPINGEN
132.207BLOEMMEN Rudy51BEL2:09:302:24 25.0231masHERSELT
133.593VERSTRAETEN Sven30BEL2:09:332:24 25.0193eliITEGEM
134.302JANSSEN Guy33BEL2:09:342:24 25.0194eliMEEUWEN
135.711DEVOLDER Frederik33BEL2:09:352:24 25.0195eliGITS
136.605VAN DE MERLEN Tom27BEL2:09:352:24 25.0096eliMALLE
137.554BENS Rudy49BEL2:09:362:24 25.0032masLAAKDAL
138.676DUYCK Jan39BEL2:09:432:25 24.9897eliASPER
139.243COREMANS Dirk42BEL2:09:442:25 24.9833masMESSELBROEK
140.53FSAENEN Kim33BEL2:09:442:25 24.982damDIEST
141.651DESMET Dieter27BEL2:09:482:25 24.9698eliDENTERGEM
142.204VERCRUYSSE Didier44BEL2:09:492:25 24.9634masTORHOUT
143.311DEMEYERE Sven18BEL2:09:502:25 24.969junKUURNE
144.710PILLEN Jelle27BEL2:09:542:25 24.9499eliOOSTDUINKERKE
145.242DEGEZELLE Marvin28BEL2:09:572:25 24.94100eliBISSEGEM
146.543PYLYSER Peter39BEL2:09:592:25 24.93101eliWESTENDE
147.740HILLEWAERE Dries32BEL2:10:032:25 24.92102eliOOSTKAMP
148.699VAN NOOTEN Eddy34BEL2:10:062:25 24.91103eliRAVELS
149.756HAMERS Sybren17BEL2:10:222:25 24.8610junZWEVEGEM
150.602VERAUTEREN Michel42BEL2:10:242:25 24.8535masSINT-PAUWELS
151.811RIEMSLAGH Gianni30BEL2:10:282:25 24.83104eli
152.757HAMERS Luc42BEL2:10:292:25 24.8336masZWEVEGEM
153.808MEYNAERTS Beny44BEL2:10:372:26 24.8137masAARSCHOT
154.224PONCELET David34BEL2:10:432:26 24.79105eliDIEPENBEEK
155.248DE MOOR Tim35BEL2:10:442:26 24.78106eliZOTTEGEM
156.534DESOMER Peter30BEL2:10:452:26 24.78107eliBREDENE
157.648LANDSCHOOT Danny44BEL2:10:502:26 24.7738masNIEUWPOORT
158.662PAUL Jonckheere41BEL2:10:532:26 24.7639masOOSTENDE
159.52FNELEN Kristien31BEL2:10:562:26 24.753damESSEN
160.841VERVISCH Stefaan47BEL2:11:082:26 24.7140masOOSTAKKER
161.212THIJS Edwin24BEL2:11:262:27 24.65108eliARENDONK
162.202NEYRINCK Steve25BEL2:11:282:27 24.65109eliRUDDERVOORDE
163.827TENZEDDAM Sebastiaan20NLD2:11:442:27 24.60110eli
164.672VANDENBULCKE Tommy36BEL2:12:392:28 24.43111eliBAVIKHOVE
165.538DEPRINCE Dieter30BEL2:12:452:28 24.41112eliOUDENBURG
166.500BAEKELANDT Wim41BEL2:12:522:28 24.3941masZEEBRUGGE
167.842DE BECKER Pierre372:12:562:28 24.37113eli
168.508DECRU Alexander34BEL2:12:572:28 24.37114eliOOSTENDE
169.585DE VUYST Guido39BEL2:12:582:28 24.37115eliGERAARDSBERGEN
170.603JACOBS Bart31BEL2:12:582:28 24.37116eliHERENTALS
171.232DILISSEN Raf39BEL2:12:582:28 24.37117eliEKSEL
172.660DEVROYE Kim18BEL2:13:042:28 24.3511junWINGENE
173.221DALEMANS Gunter79BEL2:13:062:28 24.3442masKEERBERGEN
174.738VAN ESBROECK Sven38BEL2:13:102:28 24.33118eliKOKSIJDE
175.210VAN WOENSEL Alain35BEL2:13:192:29 24.30119eliBOOISCHOT
176.655VANDIERENDONCK Jan23BEL2:13:252:29 24.29120eliZWEVEZELE
177.801COOLMANS Geert39BEL2:13:292:29 24.27121eli
178.258GEEROMS Erik43BEL2:13:302:29 24.2743masMERCHTEM
179.319VANEECKE Gerdy40BEL2:13:322:29 24.2644masWESTENDE
180.560DE BOCK Hannes25BEL2:13:342:29 24.26122eliKALMTHOUT
181.847COULIER Theis31BEL2:13:352:29 24.26123eliOOSTENDE
182.726DE VUYST Bart32BEL2:13:392:29 24.24124eliOOSTERZELE
183.748OPSTAELE Dick20BEL2:14:002:29 24.18125eliOOSTENDE
184.703STRAGIER Johan42BEL2:14:022:29 24.1745masOOSTENDE
185.31DEMAREST Jean-Claude42BEL2:14:092:30 24.1546masBREDENE
186.669DE ROOS Stany45BEL2:14:132:30 24.1447masHAMME
187.661TOM Hermans25BEL2:14:242:30 24.11126eliANTWERPEN
188.548RYCKELYNCK Glenn32BEL2:14:272:30 24.10127eliBREDENE
189.533CAUWENBERGH Gert31BEL2:14:302:30 24.09128eliBONHEIDEN
190.752VANZIELEGHEM Wim35BEL2:14:332:30 24.08129eliROESELARE
191.211GUIDEE Filip47BEL2:14:372:30 24.0748masURSEL
192.810HINDRYCKX Peter37BEL2:14:382:30 24.07130eliEERNEGEM
193.546MUYLLE Dries28BEL2:14:402:30 24.06131eliGENT
194.523SPYSSCHAERT Luc49BEL2:14:532:30 24.0249masKNOKKE HEIST
195.298BOGAERTS Kurt32BEL2:15:592:32 23.83132eliMERCHTEM
196.57FSCHOONBAERT Kim23BEL2:15:592:32 23.834damMAZENZELE
197.839VAN DEN BRANDE Jarkko Willy35BEL2:16:002:32 23.83133eliVORSELAAR
198.205COOL Gregory32BEL2:16:022:32 23.82134eliOTEGEM
199.687SPYSSCHAERT Dirk41BEL2:16:102:32 23.7950masKNOKKE HEIST
200.599GROENEZ Koen30BEL2:16:332:32 23.73135eliWORTEGEM
DNF: abandon; DSQ: disqualifié; Vitesse en km/h